TimeMST,TemperatureF,Dew PointF,Humidity,Sea Level PressureIn,VisibilityMPH,Wind Direction,Wind SpeedMPH,Gust SpeedMPH,PrecipitationIn,Events,Conditions,WindDirDegrees,DateUTC
12:10 AM,12.2,10.4,92,29.93,1.5,Calm,Calm,-,N/A,,Partly Cloudy,0,2013-02-19 07:10:00
12:13 AM,12.2,10.4,92,29.93,0.8,West,3.5,-,N/A,,Mist,270,2013-02-19 07:13:00
12:51 AM,9.0,6.1,88,30.08,0.5,Calm,Calm,-,N/A,Fog,Light Freezing Fog,0,2013-02-19 07:51:00
1:40 AM,10.4,8.6,92,29.89,1.8,Calm,Calm,-,N/A,,Partly Cloudy,0,2013-02-19 08:40:00
1:45 AM,10.4,6.8,85,29.89,5.0,Calm,Calm,-,N/A,,Partly Cloudy,0,2013-02-19 08:45:00
1:51 AM,10.0,7.0,87,30.04,5.0,Calm,Calm,-,N/A,,Partly Cloudy,0,2013-02-19 08:51:00
2:01 AM,8.6,6.8,92,29.89,1.8,Calm,Calm,-,N/A,,Clear,0,2013-02-19 09:01:00
2:51 AM,6.1,3.0,87,30.03,0.2,Calm,Calm,-,N/A,Fog,Light Freezing Fog,0,2013-02-19 09:51:00
3:51 AM,5.0,3.9,95,30.01,0.2,Calm,Calm,-,N/A,Fog,Light Freezing Fog,0,2013-02-19 10:51:00
4:51 AM,5.0,3.0,92,29.99,0.2,Calm,Calm,-,N/A,Fog,Light Freezing Fog,0,2013-02-19 11:51:00
5:51 AM,3.0,-0.0,87,29.99,0.2,NE,3.5,-,N/A,Fog,Light Freezing Fog,40,2013-02-19 12:51:00
6:51 AM,5.0,3.0,92,29.96,0.2,Calm,Calm,-,N/A,Fog,Light Freezing Fog,0,2013-02-19 13:51:00
7:51 AM,3.0,1.0,91,29.99,0.2,Calm,Calm,-,N/A,Fog,Light Freezing Fog,0,2013-02-19 14:51:00
8:51 AM,6.1,3.9,91,29.98,0.2,South,3.5,-,N/A,Fog,Light Freezing Fog,170,2013-02-19 15:51:00
9:51 AM,9.0,7.0,92,29.94,0.2,Calm,Calm,-,N/A,Fog,Light Freezing Fog,0,2013-02-19 16:51:00
10:24 AM,12.2,10.4,92,29.78,1.0,Calm,Calm,-,N/A,,Overcast,0,2013-02-19 17:24:00
10:38 AM,10.4,8.6,92,29.78,2.0,WSW,4.6,-,N/A,,Overcast,250,2013-02-19 17:38:00
11:51 AM,16.0,12.0,84,29.91,7.0,Calm,Calm,-,N/A,,Overcast,0,2013-02-19 18:51:00
12:51 PM,19.0,12.9,77,29.89,8.0,Calm,Calm,-,N/A,,Overcast,0,2013-02-19 19:51:00
1:51 PM,19.9,14.0,78,29.85,9.0,West,3.5,-,N/A,,Mostly Cloudy,260,2013-02-19 20:51:00
2:51 PM,23.0,16.0,74,29.83,9.0,Calm,Calm,-,N/A,,Clear,0,2013-02-19 21:51:00
3:51 PM,24.1,16.0,71,29.81,9.0,Calm,Calm,-,N/A,,Clear,0,2013-02-19 22:51:00
5:51 PM,21.0,15.1,78,29.81,8.0,SW,3.5,-,N/A,,Clear,220,2013-02-20 00:51:00
6:51 PM,21.0,14.0,74,29.79,10.0,Calm,Calm,-,N/A,,Mostly Cloudy,0,2013-02-20 01:51:00
7:51 PM,15.1,10.9,84,29.81,8.0,NNW,3.5,-,N/A,,Mostly Cloudy,330,2013-02-20 02:51:00
8:51 PM,14.0,10.9,88,29.80,5.0,NW,3.5,-,N/A,,Clear,310,2013-02-20 03:51:00
9:51 PM,14.0,10.9,88,29.78,6.0,Calm,Calm,-,N/A,,Overcast,0,2013-02-20 04:51:00
10:51 PM,14.0,10.0,84,29.77,6.0,WNW,3.5,-,N/A,,Scattered Clouds,290,2013-02-20 05:51:00
11:51 PM,18.0,14.0,84,29.75,7.0,SSE,4.6,-,N/A,,Overcast,150,2013-02-20 06:51:00